[[{"header":{"parameterUnit":"m.s-1","parameterCategory":1,"la1":30.2991,"la2":30.254,"lo1":-89.0895,"lo2":-89.0444,"dy":0.0017,"dx":0.0017,"nx":28,"ny":28,"refTime":"2023-10-03T09:00:00:Z","depth":0,"parameterNumber":2,"parameterNumberName":"U-component_of_WINDS"},"data":[0,0,0,0,0,0,0,0,0,0,0,0,0,0,0,0,0,0,0,0,0,0,0,0,0,0,0,0,0,0,0,0,0,0,0,0,0,0,0,0,0,0,0,0,0,0,0,0,0,0,0,0,0,0,0,0,0,0,-4.6176,-4.6177,0,-4.6282,-4.6283,-4.6285,-4.6167,-4.6162,-4.6158,-4.6153,-4.6263,-4.627,-4.6277,0,0,0,0,0,0,0,0,0,0,0,0,0,-4.5871,-4.5878,-4.6176,-4.6177,-4.6178,-4.6282,-4.6283,-4.6285,-4.6167,-4.6162,-4.6157,-4.6151,-4.6261,-4.6269,-4.6278,0,0,0,0,0,0,0,0,0,0,0,0,0,-4.5993,-4.588,-4.6176,-4.6132,-4.6129,-4.6282,-4.6283,-4.6285,-4.6169,-4.6162,-4.6155,-4.6149,-4.6258,-4.6268,-4.6279,-4.6479,0,0,-4.6311,-4.6316,0,0,0,0,0,0,0,0,-4.5987,-4.6005,-4.6137,-4.6136,-4.6133,-4.6204,-4.6216,-4.635,-4.617,-4.6154,-4.6153,-4.6146,-4.6249,-4.626,-4.6295,-4.6484,-4.6489,-4.6312,-4.6319,-4.6323,-4.6326,0,0,0,0,0,0,0,-4.5978,-4.5999,-4.6218,-4.6139,-4.6137,-4.6108,-4.6118,-4.6241,-4.6238,-4.6155,-4.6146,-4.6161,-4.6246,-4.6285,-4.6296,-4.649,-4.6312,-4.6321,-4.6328,-4.6332,-4.685,-4.6857,0,0,0,0,0,0,-4.5975,-4.5993,-4.6214,-4.6221,-4.6042,-4.6119,-4.613,-4.6188,-4.6236,-4.6237,-4.6166,-4.6155,-4.627,-4.6284,-4.63,-4.6538,-4.6323,-4.6333,-4.6339,-4.6842,-4.6851,-4.6859,0,0,0,0,0,0,-4.5969,-4.5995,-4.621,-4.6105,-4.613,-4.6131,-4.6198,-4.6194,-4.6232,-4.6245,-4.6244,-4.6206,-4.6265,-4.6285,-4.6435,-4.654,-4.6338,-4.6348,-4.6834,-4.6845,-4.6855,-4.7015,0,0,0,0,0,0,-4.596,-4.5994,-4.607,-4.6107,-4.6136,-4.6344,-4.6204,-4.6201,-4.625,-4.6236,-4.6282,-4.6283,-4.6261,-4.642,-4.6446,-4.6551,-4.6356,-4.6824,-4.6839,-4.6852,-4.7001,-4.703,-4.7056,0,0,0,0,0,-4.595,-4.6111,-4.6075,-4.6102,-4.6231,-4.6351,-4.6367,-4.6339,-4.6259,-4.6336,-4.6344,-4.6281,-4.6524,-4.6436,-4.6465,-4.6574,-4.6818,-4.6835,-4.6851,-4.6988,-4.7025,-4.7055,0,0,0,0,0,0,-4.6086,-4.6115,-4.6075,-4.6253,-4.63,-4.633,-4.6426,-4.6378,-4.6449,-4.6433,-4.6395,-4.6406,-4.6566,-4.6585,-4.6487,-4.6771,-4.6658,-4.6681,-4.6753,-4.6787,-4.6814,-4.6807,-4.6365,0,0,0,0,0,-4.6137,-4.6231,-4.6251,-4.6406,-4.6432,-4.6426,-4.6476,-4.6451,-4.6498,-4.6517,-4.6537,-4.6585,-4.6672,-4.6731,-4.6811,-4.7002,-4.7011,-4.7092,-4.7119,-4.7142,-4.7162,-4.7265,-4.7302,-4.6914,-4.6913,-4.6913,0,0,-4.6242,-4.627,-4.6332,-4.6434,-4.6468,-4.6567,-4.6443,-4.6553,-4.6626,-4.6534,-4.6678,-4.6694,-4.6745,-4.6917,-4.6994,-4.6938,-4.7271,-4.7163,-4.7181,-4.7189,-4.7286,-4.7323,-4.7356,-4.6925,-4.6923,-4.6921,0,0,-4.6486,-4.6516,-4.6649,-4.6685,-4.6737,-4.6732,-4.6764,-4.6802,-4.6809,-4.6952,-4.6885,-4.6971,-4.7122,-4.7162,-4.7202,-4.7461,-4.7406,-4.7488,-4.7633,-4.7733,-4.7764,-4.7791,-4.7884,-4.7918,-4.7508,-4.7509,-4.7509,0,-4.6611,-4.6757,-4.6723,-4.6838,-4.6885,-4.6806,-4.6941,-4.6977,-4.7054,-4.7088,-4.7024,-4.7212,-4.7241,-4.7422,-4.7485,-4.7519,-4.7555,-4.7483,-4.7762,-4.7789,-4.7814,-4.7902,-4.7937,-4.7518,-4.7517,-4.7516,-4.7515,0,-4.6909,-4.7011,-4.7112,-4.7188,-4.7246,-4.737,-4.7355,-4.7419,-4.7388,-4.7389,-4.7536,-4.7568,-4.7655,-4.7695,-4.7666,-4.7872,-4.7836,-4.7768,-4.7654,-4.7861,-4.7943,-4.7977,-4.7532,-4.7529,-4.7526,-4.7524,0,0,-4.7241,-4.7297,-4.7334,-4.7368,-4.742,-4.7499,-4.7619,-4.7703,-4.7759,-4.7814,-4.7914,-4.8044,-4.7981,-4.8027,-4.8001,-4.809,-4.8294,-4.8011,-4.8011,-4.8063,-4.8523,-4.8575,-4.8614,-4.8257,-4.8263,-4.8268,-4.8519,0,-4.7486,-4.7695,-4.7668,-4.7869,-4.7964,-4.789,-4.7995,-4.8038,-4.8043,-4.8124,-4.8128,-4.8221,-4.8131,-4.8158,-4.8242,-4.8251,-4.8386,-4.8232,-4.8351,-4.8356,-4.8341,-4.8657,-4.8712,-4.8947,-4.8551,-4.8556,-4.856,0,-4.78,-4.7867,-4.8077,-4.8115,-4.8153,-4.8249,-4.8324,-4.8402,-4.8449,-4.8446,-4.8498,-4.8457,-4.8578,-4.8461,-4.8627,-4.8524,-4.8571,-4.8582,-4.8591,-4.8601,-4.8471,-4.8678,-4.9021,-4.9057,-4.8611,-4.8607,-4.8603,0,-4.8023,-4.8165,-4.8309,-4.834,-4.8388,-4.8456,-4.8479,-4.852,-4.8573,-4.8638,-4.8672,-4.8751,-4.8795,-4.8857,-4.8838,-4.8755,-4.901,-4.8891,-4.9011,-4.9012,-4.9069,-4.9066,-4.9426,-4.9098,-4.9097,-4.9097,-4.9096,0,-4.83,-4.8432,-4.841,-4.8499,-4.8645,-4.8612,-4.8757,-4.8771,-4.8808,-4.8898,-4.8839,-4.8925,-4.8895,-4.898,-4.8966,-4.9106,-4.9126,-4.9128,-4.9123,-4.9134,-4.9134,-4.9164,-4.9148,-4.9106,-4.9104,-4.9102,-4.91,0,-4.8574,-4.8565,-4.8717,-4.8749,-4.8761,-4.8867,-4.8894,-4.8978,-4.8977,-4.9092,-4.9118,-4.9117,-4.9214,-4.9201,-4.9309,-4.9299,-4.9475,-4.9449,-4.9459,-4.9453,-4.9574,-4.9564,-4.9968,-5.0019,-4.9657,-4.9661,-4.9664,0,-4.8752,-4.8851,-4.8894,-4.8951,-4.8978,-4.907,-4.9123,-4.9095,-4.9153,-4.9215,-4.9291,-4.9382,-4.9454,-4.9611,-4.9621,-4.9703,-4.968,-4.9816,-4.9692,-4.97,-4.9683,-4.9678,-4.9688,-4.9841,-4.9845,-4.9848,-4.9851,0,-4.9068,-4.9059,-4.9138,-4.9216,-4.9281,-4.9341,-4.9395,-4.9445,-4.9422,-4.949,-4.9588,-4.9643,-4.9753,-4.9845,-4.9922,-4.9945,-4.9896,-4.989,-4.9922,-4.9935,-4.9936,-4.9938,-4.9527,-4.9881,-4.9878,-4.9876,-4.9874,-4.9873,-4.93,-4.9385,-4.9429,-4.9519,-4.9557,-4.9609,-4.9689,-4.9699,-4.978,-4.9867,-4.9845,-4.9957,-5.0002,-5.01,-5.0132,-5.0219,-5.0169,-5.0216,-5.0227,-5.024,-5.0254,-4.9922,-5.0233,-5.0232,-5.0231,-5.023,-5.0229,0,-4.9614,-4.9639,-4.9722,-4.98,-4.9871,-4.9817,-4.9874,-4.9937,-5.0035,-5.0082,-5.0153,-5.0266,-5.0354,-5.0371,-5.0455,-5.0522,-5.0501,-5.0545,-5.054,-5.0546,-5.0294,-5.0258,-5.056,-5.056,-5.056,-5.056,-5.056,-5.056,-4.9786,-4.9928,-4.9924,-5.0084,-5.0107,-5.0215,-5.0253,-5.0301,-5.0337,-5.0466,-5.0539,-5.0549,-5.0584,-5.067,-5.0749,-5.0752,-5.0786,-5.084,-5.0833,-5.0597,-5.0564,-5.0533,-5.0499,-5.0847,-5.0847,-5.1079,-5.1081,-5.1083]},{"header":{"parameterUnit":"m.s-1","parameterCategory":1,"la1":30.2991,"la2":30.254,"lo1":-89.0895,"lo2":-89.0444,"dy":0.0017,"dx":0.0017,"nx":28,"ny":28,"refTime":"2023-10-03T09:00:00:Z","depth":0,"parameterNumber":3,"parameterNumberName":"V-component_of_WINDS"},"data":[0,0,0,0,0,0,0,0,0,0,0,0,0,0,0,0,0,0,0,0,0,0,0,0,0,0,0,0,0,0,0,0,0,0,0,0,0,0,0,0,0,0,0,0,0,0,0,0,0,0,0,0,0,0,0,0,0,0,-2.6855,-2.6854,0,-2.6794,-2.6794,-2.6793,-2.6733,-2.6732,-2.6731,-2.673,-2.6669,-2.6668,-2.6667,0,0,0,0,0,0,0,0,0,0,0,0,0,-2.6915,-2.6914,-2.6855,-2.6854,-2.6853,-2.6795,-2.6794,-2.6793,-2.6733,-2.6732,-2.6731,-2.673,-2.6669,-2.6668,-2.6667,0,0,0,0,0,0,0,0,0,0,0,0,0,-2.6875,-2.6914,-2.6855,-2.6816,-2.6812,-2.6795,-2.6794,-2.6793,-2.6733,-2.6732,-2.673,-2.6729,-2.6669,-2.6668,-2.6667,-2.6683,0,0,-2.6663,-2.6662,0,0,0,0,0,0,0,0,-2.6878,-2.6873,-2.6823,-2.6819,-2.6814,-2.677,-2.6792,-2.6756,-2.6733,-2.6763,-2.673,-2.6729,-2.6703,-2.6699,-2.669,-2.668,-2.6677,-2.6662,-2.6662,-2.6661,-2.6661,0,0,0,0,0,0,0,-2.688,-2.6875,-2.6831,-2.6822,-2.6817,-2.6801,-2.6794,-2.6785,-2.6741,-2.676,-2.6756,-2.6749,-2.6701,-2.6692,-2.6689,-2.6676,-2.6662,-2.6661,-2.666,-2.666,-2.6672,-2.6673,0,0,0,0,0,0,-2.6889,-2.6878,-2.6833,-2.6829,-2.6844,-2.6801,-2.6793,-2.6785,-2.6741,-2.6733,-2.6751,-2.6747,-2.6695,-2.669,-2.6686,-2.6699,-2.6661,-2.666,-2.6659,-2.6671,-2.6672,-2.6673,0,0,0,0,0,0,-2.6891,-2.6886,-2.6835,-2.6852,-2.6845,-2.6801,-2.6793,-2.6785,-2.6776,-2.6733,-2.6725,-2.675,-2.6694,-2.6688,-2.6683,-2.6696,-2.6659,-2.6658,-2.6669,-2.6671,-2.6673,-2.6728,0,0,0,0,0,0,-2.6893,-2.6887,-2.6893,-2.6853,-2.6844,-2.6834,-2.6794,-2.6784,-2.6774,-2.6768,-2.673,-2.6723,-2.6692,-2.6685,-2.6682,-2.6694,-2.6657,-2.6668,-2.667,-2.6672,-2.6725,-2.6731,-2.6737,0,0,0,0,0,-2.6895,-2.6912,-2.6894,-2.6889,-2.6851,-2.6835,-2.683,-2.6794,-2.6775,-2.678,-2.6752,-2.6724,-2.6696,-2.6685,-2.6681,-2.6693,-2.6667,-2.667,-2.6672,-2.6722,-2.673,-2.6737,0,0,0,0,0,0,-2.6956,-2.6906,-2.6886,-2.689,-2.6867,-2.6825,-2.6831,-2.6805,-2.6787,-2.6783,-2.6739,-2.6731,-2.673,-2.6711,-2.6701,-2.6704,-2.6677,-2.6679,-2.6717,-2.6724,-2.673,-2.6734,-2.6656,0,0,0,0,0,-2.697,-2.6961,-2.6918,-2.6926,-2.6915,-2.6875,-2.6867,-2.6841,-2.6816,-2.6806,-2.6778,-2.6754,-2.6739,-2.6731,-2.6715,-2.6722,-2.6711,-2.6727,-2.6734,-2.6739,-2.674,-2.6739,-2.6745,-2.6682,-2.6682,-2.6681,0,0,-2.6998,-2.697,-2.6968,-2.6937,-2.6917,-2.6908,-2.6868,-2.6861,-2.6853,-2.6805,-2.6798,-2.6776,-2.6747,-2.6747,-2.6745,-2.6731,-2.6755,-2.6742,-2.6746,-2.6745,-2.6742,-2.6748,-2.6754,-2.6683,-2.6683,-2.6683,0,0,-2.7045,-2.7024,-2.7027,-2.7006,-2.6975,-2.6948,-2.6948,-2.691,-2.6893,-2.6885,-2.6848,-2.6838,-2.6815,-2.6794,-2.678,-2.6816,-2.6788,-2.6813,-2.6844,-2.6843,-2.6848,-2.6852,-2.6863,-2.6867,-2.6815,-2.6815,-2.6815,0,-2.7085,-2.707,-2.7032,-2.7026,-2.7013,-2.6968,-2.6969,-2.6951,-2.6917,-2.6908,-2.6892,-2.6859,-2.6836,-2.6829,-2.6838,-2.6829,-2.6827,-2.6816,-2.6851,-2.6855,-2.6858,-2.6867,-2.6871,-2.6818,-2.6817,-2.6817,-2.6817,0,-2.7119,-2.7109,-2.7115,-2.7082,-2.7069,-2.7067,-2.7027,-2.7019,-2.6994,-2.6967,-2.6958,-2.6929,-2.6905,-2.6902,-2.6878,-2.689,-2.6882,-2.6859,-2.6831,-2.6867,-2.6875,-2.6879,-2.6822,-2.6821,-2.682,-2.6819,0,0,-2.7203,-2.7147,-2.715,-2.7132,-2.7093,-2.7085,-2.708,-2.7056,-2.7048,-2.7026,-2.7019,-2.6998,-2.6976,-2.6961,-2.6933,-2.6933,-2.696,-2.691,-2.6908,-2.6918,-2.6968,-2.6985,-2.699,-2.6941,-2.6942,-2.6942,-2.697,0,-2.7242,-2.7231,-2.7195,-2.7193,-2.7182,-2.7138,-2.7133,-2.7108,-2.7083,-2.7069,-2.7041,-2.7026,-2.7,-2.6989,-2.6987,-2.6957,-2.6969,-2.6955,-2.6933,-2.6932,-2.694,-2.6994,-2.7012,-2.704,-2.6973,-2.6974,-2.6974,0,-2.7287,-2.7265,-2.7263,-2.7221,-2.7215,-2.7212,-2.7185,-2.7173,-2.7143,-2.7124,-2.7106,-2.7075,-2.7065,-2.7039,-2.7024,-2.7015,-2.7003,-2.6987,-2.6987,-2.6982,-2.6955,-2.6989,-2.7048,-2.7052,-2.6979,-2.6979,-2.6978,0,-2.7346,-2.7316,-2.731,-2.7297,-2.725,-2.7248,-2.7228,-2.7196,-2.7183,-2.7159,-2.715,-2.7126,-2.7113,-2.7094,-2.7056,-2.7042,-2.7044,-2.7016,-2.7027,-2.7027,-2.7029,-2.7029,-2.7085,-2.7024,-2.7024,-2.7024,-2.7024,0,-2.7392,-2.7392,-2.7336,-2.7332,-2.7329,-2.7287,-2.7286,-2.7261,-2.7233,-2.7222,-2.7183,-2.7173,-2.7125,-2.711,-2.708,-2.707,-2.7065,-2.7048,-2.704,-2.7051,-2.7053,-2.7042,-2.7039,-2.7025,-2.7025,-2.7025,-2.7024,0,-2.7458,-2.742,-2.741,-2.7365,-2.7354,-2.7354,-2.7314,-2.7308,-2.728,-2.7267,-2.7261,-2.7216,-2.7196,-2.7156,-2.7126,-2.7105,-2.7101,-2.7088,-2.7111,-2.7106,-2.7118,-2.7117,-2.7168,-2.7171,-2.711,-2.7111,-2.7112,0,-2.7489,-2.7487,-2.7442,-2.7432,-2.7413,-2.7398,-2.7383,-2.7341,-2.7328,-2.7291,-2.7288,-2.7265,-2.7243,-2.7212,-2.7176,-2.7151,-2.7136,-2.7155,-2.7132,-2.7142,-2.7133,-2.7133,-2.7132,-2.7161,-2.7162,-2.7162,-2.7163,0,-2.7548,-2.7529,-2.751,-2.7485,-2.7469,-2.7447,-2.7422,-2.7416,-2.7367,-2.7354,-2.7332,-2.7316,-2.7282,-2.7258,-2.7228,-2.7205,-2.7175,-2.717,-2.7171,-2.7182,-2.7194,-2.7185,-2.7124,-2.7169,-2.7169,-2.7168,-2.7168,-2.7168,-2.7596,-2.7591,-2.7558,-2.7537,-2.7514,-2.7492,-2.7483,-2.7452,-2.7434,-2.7403,-2.7379,-2.7358,-2.7325,-2.728,-2.7259,-2.7241,-2.7227,-2.7229,-2.7229,-2.723,-2.7233,-2.7198,-2.7236,-2.7235,-2.7235,-2.7235,-2.7235,0,-2.7651,-2.7626,-2.7608,-2.7575,-2.7558,-2.7531,-2.7502,-2.749,-2.7472,-2.7443,-2.7423,-2.7396,-2.7371,-2.7333,-2.7305,-2.7297,-2.7283,-2.7291,-2.7291,-2.7285,-2.7248,-2.725,-2.7304,-2.7304,-2.7304,-2.7304,-2.7304,-2.7303,-2.7677,-2.7667,-2.7644,-2.7621,-2.7596,-2.7576,-2.7561,-2.7539,-2.7516,-2.7488,-2.7467,-2.7442,-2.7408,-2.7377,-2.7352,-2.7341,-2.7332,-2.7345,-2.7329,-2.7295,-2.7289,-2.7282,-2.7283,-2.7343,-2.7343,-2.7367,-2.7367,-2.7368]}]]